Location: Pedholt
(56.0260°N, 10.2097°E)
Time: 03:10:34
(UTC+00:00)

SR - Pass Details

Date: 29 July 2021
Orbit: 581 x 874 km, 66.7° (Epoch: 21 September)

Event Time Altitude Azimuth Distance (km) Brightness Sun altitude
Rises 13:08:49 0° 314° (NW) 3,242 ? 47.9°
Reaches altitude 10° 13:11:22 10° 318° (NW) 2,264 ? 47.6°
Maximum altitude 13:16:26 56° 37° (NE) 827 ? 47.2°
Drops below altitude 10° 13:21:02 10° 117° (ESE) 2,067 ? 46.8°
Sets 13:23:17 0° 121° (ESE) 2,934 ? 46.6°
